• In Russia
  • List of Countries
  • For 7 days
  • Water Temperature
  • Satellite Maps
  • Weather Map
  • Weather Widgets
  • user-avatar
    Login

    Hourly Weather Muya

    Today, 16 November, Friday

    Time Temperature Precipitation Wind Pressure Humidity
    00:00 -17°C° 0 mm 1 mps 716 mmHg 76%
    01:00 -17°C° 0 mm 1 mps 716 mmHg 77%
    02:00 -17°C° 0 mm 1 mps 715 mmHg 77%
    03:00 -17°C° 0 mm 1 mps 714 mmHg 78%
    04:00 -16°C° 0 mm 1 mps 714 mmHg 79%
    05:00 -16°C° 0 mm 1 mps 714 mmHg 80%
    06:00 -16°C° 0 mm 1 mps 714 mmHg 82%
    07:00 -16°C° 0 mm 1 mps 713 mmHg 83%
    08:00 -16°C° 0 mm 1 mps 713 mmHg 85%
    09:00 -14°C° 0 mm 1 mps 713 mmHg 81%
    10:00 -13°C° 0 mm 1 mps 713 mmHg 78%
    11:00 -12°C° 0 mm 1 mps 713 mmHg 75%
    12:00 -12°C° 0 mm 1 mps 712 mmHg 75%
    13:00 -11°C° 0 mm 1 mps 712 mmHg 75%
    14:00 -11°C° 0 mm 1 mps 712 mmHg 75%
    15:00 -12°C° 0 mm 1 mps 712 mmHg 79%
    16:00 -13°C° 0 mm 1 mps 713 mmHg 82%
    17:00 -13°C° 0 mm 1 mps 713 mmHg 86%
    18:00 -13°C° 0 mm 1 mps 713 mmHg 86%
    19:00 -13°C° 0 mm 1 mps 713 mmHg 85%
    20:00 -13°C° 0 mm 1 mps 713 mmHg 85%
    21:00 -14°C° 0 mm 1 mps 713 mmHg 85%
    22:00 -14°C° 0 mm 1 mps 713 mmHg 86%
    23:00 -14°C° 0 mm 1 mps 713 mmHg 86%

    Tomorrow, 17 November, Saturday

    Time Temperature Precipitation Wind Pressure Humidity
    00:00 -14°C° 0 mm 1 mps 713 mmHg 86%
    01:00 -14°C° 0 mm 1 mps 713 mmHg 87%
    02:00 -14°C° 0 mm 1 mps 713 mmHg 87%
    03:00 -14°C° 0 mm 1 mps 713 mmHg 87%
    04:00 -14°C° 0 mm 1 mps 713 mmHg 87%
    05:00 -14°C° 0 mm 1 mps 713 mmHg 87%
    06:00 -14°C° 0 mm 1 mps 713 mmHg 87%
    07:00 -14°C° 0 mm 1 mps 713 mmHg 87%
    08:00 -14°C° 0 mm 1 mps 713 mmHg 87%
    09:00 -13°C° 0.1 mm 1 mps 713 mmHg 85%
    10:00 -12°C° 0.1 mm 1 mps 714 mmHg 82%
    11:00 -12°C° 0.1 mm 1 mps 714 mmHg 79%
    12:00 -14°C° 0.1 mm 2 mps 714 mmHg 79%
    13:00 -14°C° 0.1 mm 2 mps 714 mmHg 79%
    14:00 -15°C° 0.1 mm 3 mps 715 mmHg 79%
    15:00 -16°C° 0.1 mm 3 mps 715 mmHg 79%
    16:00 -17°C° 0.1 mm 3 mps 716 mmHg 80%
    17:00 -18°C° 0.1 mm 3 mps 716 mmHg 80%
    18:00 -19°C° 0 mm 3 mps 716 mmHg 80%
    19:00 -21°C° 0 mm 3 mps 717 mmHg 81%
    20:00 -22°C° 0 mm 3 mps 717 mmHg 81%
    21:00 -22°C° 0 mm 3 mps 717 mmHg 81%
    22:00 -23°C° 0 mm 3 mps 718 mmHg 81%
    23:00 -23°C° 0 mm 3 mps 718 mmHg 81%

    Day after tomorrow, 18 November, Sunday

    Time Temperature Precipitation Wind Pressure Humidity
    00:00 -24°C° 0 mm 3 mps 718 mmHg 81%
    01:00 -23°C° 0 mm 2 mps 718 mmHg 81%
    02:00 -24°C° 0 mm 2 mps 719 mmHg 81%
    03:00 -24°C° 0 mm 2 mps 719 mmHg 80%
    04:00 -24°C° 0 mm 2 mps 719 mmHg 80%
    05:00 -24°C° 0 mm 2 mps 719 mmHg 80%
    06:00 -25°C° 0 mm 2 mps 719 mmHg 80%
    07:00 -25°C° 0 mm 2 mps 719 mmHg 80%
    08:00 -25°C° 0 mm 2 mps 719 mmHg 80%
    09:00 -24°C° 0 mm 2 mps 719 mmHg 77%
    10:00 -23°C° 0 mm 2 mps 719 mmHg 73%
    11:00 -23°C° 0 mm 2 mps 719 mmHg 70%
    12:00 -21°C° 0 mm 2 mps 719 mmHg 70%
    13:00 -21°C° 0 mm 2 mps 718 mmHg 69%
    14:00 -21°C° 0 mm 2 mps 718 mmHg 68%
    15:00 -23°C° 0 mm 2 mps 718 mmHg 72%
    16:00 -24°C° 0 mm 2 mps 719 mmHg 75%
    17:00 -25°C° 0 mm 2 mps 719 mmHg 78%
    18:00 -26°C° 0 mm 2 mps 719 mmHg 78%
    19:00 -26°C° 0 mm 2 mps 719 mmHg 78%
    20:00 -26°C° 0 mm 2 mps 719 mmHg 77%
    21:00 -27°C° 0 mm 2 mps 719 mmHg 77%
    22:00 -27°C° 0 mm 2 mps 719 mmHg 77%
    23:00 -24°C° 0 mm 1 mps 719 mmHg 76%

    19 November, Monday

    Time Temperature Precipitation Wind Pressure Humidity
    00:00 -24°C° 0 mm 1 mps 719 mmHg 76%
    01:00 -24°C° 0 mm 1 mps 719 mmHg 75%
    02:00 -24°C° 0 mm 1 mps 719 mmHg 75%
    03:00 -25°C° 0 mm 1 mps 719 mmHg 74%
    04:00 -25°C° 0 mm 1 mps 719 mmHg 74%
    05:00 -25°C° 0 mm 1 mps 719 mmHg 73%
    06:00 -25°C° 0 mm 1 mps 719 mmHg 73%
    07:00 -25°C° 0 mm 1 mps 719 mmHg 73%
    08:00 -25°C° 0 mm 1 mps 719 mmHg 72%
    09:00 -24°C° 0 mm 1 mps 719 mmHg 69%
    10:00 -22°C° 0 mm 1 mps 719 mmHg 65%
    11:00 -21°C° 0 mm 1 mps 719 mmHg 62%
    12:00 -20°C° 0 mm 1 mps 719 mmHg 61%
    13:00 -20°C° 0 mm 1 mps 719 mmHg 61%
    14:00 -19°C° 0 mm 1 mps 719 mmHg 61%
    15:00 -20°C° 0 mm 1 mps 719 mmHg 64%
    16:00 -22°C° 0 mm 1 mps 719 mmHg 66%
    17:00 -23°C° 0 mm 1 mps 719 mmHg 69%
    18:00 -23°C° 0 mm 1 mps 719 mmHg 69%
    19:00 -23°C° 0 mm 1 mps 720 mmHg 68%
    20:00 -23°C° 0 mm 1 mps 720 mmHg 68%
    21:00 -23°C° 0 mm 1 mps 719 mmHg 68%
    22:00 -23°C° 0 mm 1 mps 719 mmHg 69%
    23:00 -23°C° 0 mm 1 mps 719 mmHg 69%

    20 November, Tuesday

    Time Temperature Precipitation Wind Pressure Humidity
    00:00 -23°C° 0 mm 1 mps 719 mmHg 70%
    01:00 -23°C° 0 mm 1 mps 718 mmHg 71%
    02:00 -22°C° 0 mm 1 mps 718 mmHg 72%
    03:00 -22°C° 0 mm 1 mps 718 mmHg 73%
    04:00 -22°C° 0 mm 1 mps 718 mmHg 74%
    05:00 -22°C° 0 mm 1 mps 717 mmHg 76%
    06:00 -22°C° 0 mm 1 mps 717 mmHg 76%
    07:00 -22°C° 0 mm 1 mps 717 mmHg 77%
    08:00 -22°C° 0 mm 1 mps 716 mmHg 78%
    09:00 -20°C° 0 mm 1 mps 716 mmHg 75%
    10:00 -19°C° 0 mm 1 mps 716 mmHg 73%
    11:00 -18°C° 0 mm 1 mps 716 mmHg 70%
    12:00 -18°C° 0 mm 1 mps 715 mmHg 70%
    13:00 -17°C° 0 mm 1 mps 715 mmHg 71%
    14:00 -17°C° 0 mm 1 mps 714 mmHg 71%
    15:00 -17°C° 0 mm 1 mps 714 mmHg 75%
    16:00 -18°C° 0 mm 1 mps 714 mmHg 78%
    17:00 -21°C° 0 mm 2 mps 714 mmHg 81%
    18:00 -21°C° 0 mm 2 mps 713 mmHg 82%
    19:00 -21°C° 0 mm 2 mps 713 mmHg 82%
    20:00 -21°C° 0 mm 2 mps 713 mmHg 82%
    21:00 -21°C° 0 mm 2 mps 712 mmHg 82%
    22:00 -21°C° 0 mm 2 mps 712 mmHg 82%
    23:00 -21°C° 0 mm 2 mps 711 mmHg 82%

    21 November, Wednesday

    Time Temperature Precipitation Wind Pressure Humidity
    00:00 -21°C° 0 mm 2 mps 711 mmHg 82%
    01:00 -21°C° 0 mm 2 mps 710 mmHg 82%
    02:00 -21°C° 0 mm 2 mps 710 mmHg 82%
    03:00 -21°C° 0 mm 2 mps 709 mmHg 82%
    04:00 -21°C° 0 mm 2 mps 709 mmHg 82%
    05:00 -21°C° 0 mm 2 mps 708 mmHg 82%
    06:00 -21°C° 0 mm 2 mps 708 mmHg 82%
    07:00 -21°C° 0 mm 2 mps 707 mmHg 82%
    08:00 -21°C° 0 mm 2 mps 707 mmHg 82%
    09:00 -20°C° 0 mm 2 mps 706 mmHg 80%
    10:00 -19°C° 0 mm 2 mps 706 mmHg 77%
    11:00 -18°C° 0 mm 2 mps 705 mmHg 74%
    12:00 -17°C° 0 mm 2 mps 704 mmHg 75%
    13:00 -17°C° 0 mm 2 mps 704 mmHg 75%
    14:00 -17°C° 0 mm 2 mps 703 mmHg 76%
    15:00 -17°C° 0 mm 2 mps 703 mmHg 80%
    16:00 -18°C° 0 mm 2 mps 702 mmHg 83%
    17:00 -18°C° 0 mm 2 mps 702 mmHg 87%
    18:00 -16°C° 0.1 mm 1 mps 702 mmHg 87%
    19:00 -16°C° 0.1 mm 1 mps 702 mmHg 88%
    20:00 -16°C° 0.1 mm 1 mps 702 mmHg 88%
    21:00 -16°C° 0.1 mm 1 mps 702 mmHg 88%
    22:00 -16°C° 0.1 mm 1 mps 702 mmHg 89%
    23:00 -16°C° 0.1 mm 1 mps 703 mmHg 89%
    Show more